Theta_e
278 278 278 277 278 278 278 278 278 278 279 279 279 279 279 279 279 278 278 278 278 278 278 278 277 277 277 277 277 277 278 278 277 277 277 276 276 275 275 274 273 272
278 277 277 277 278 278 278 278 278 278 279 279 279 279 279 279 279 279 279 279 278 278 278 278 278 278 278 277 277 277 278 278 277 277 277 276 276 275 275 275 274 273
278 277 277 277 277 278 278 278 278 278 278 279 279 279 279 279 279 279 279 279 279 279 278 278 278 278 278 278 277 277 278 278 277 277 277 276 276 276 275 275 274 273
278 277 277 277 277 277 277 277 277 278 278 278 279 279 279 279 279 279 279 279 279 279 279 279 278 278 278 278 278 278 278 277 277 277 277 276 276 276 276 275 274 273
278 278 277 277 277 277 277 277 277 277 278 278 278 279 279 279 279 279 279 279 279 279 279 279 279 279 278 278 278 278 278 278 277 277 276 277 276 276 276 275 274 274
278 278 278 277 277 277 277 277 277 277 277 277 278 278 278 278 278 278 278 279 279 279 279 279 279 279 279 278 278 278 278 278 277 277 276 277 277 276 276 275 275 274
278 278 278 277 277 277 277 276 276 276 277 277 277 277 278 278 278 278 278 278 278 279 279 279 279 279 279 278 278 278 278 277 277 277 276 276 277 277 276 276 275 274
278 278 278 278 277 276 276 276 276 276 276 276 276 277 277 277 278 278 278 278 278 278 278 279 279 279 278 278 278 278 278 277 277 277 276 276 277 277 277 276 275 275
278 278 278 278 277 276 276 276 276 276 275 275 276 276 276 276 277 277 277 278 278 278 278 278 278 278 278 278 278 278 277 277 277 276 276 276 276 277 277 276 275 275
278 278 278 278 277 277 276 276 276 275 275 275 275 275 276 276 276 276 277 277 277 277 278 278 278 278 278 278 277 277 277 277 276 276 276 276 276 276 276 276 275 275
278 278 278 278 277 277 276 276 275 275 275 275 275 275 275 275 276 276 276 276 277 277 277 277 277 277 277 277 277 277 277 276 276 276 276 276 276 276 276 275 275 276
278 278 278 278 277 277 276 275 275 275 274 275 275 275 275 275 275 276 276 276 276 276 276 276 276 277 277 277 277 277 276 276 276 276 276 275 275 276 275 275 275 275
278 278 278 277 277 276 276 275 275 274 274 274 274 274 275 275 275 275 275 275 275 275 275 275 276 276 276 277 277 276 276 276 276 276 276 276 275 275 275 275 275 275
278 278 278 277 277 276 276 275 274 274 273 273 274 274 274 274 275 275 275 275 275 275 275 275 275 275 276 276 276 276 276 276 276 276 276 276 275 275 275 275 275 275
278 278 277 277 277 276 276 275 274 274 273 273 273 273 274 274 274 274 274 274 274 274 274 274 275 275 275 276 276 276 276 276 276 276 276 276 275 275 275 275 275 276
278 277 277 277 277 277 276 276 275 274 273 273 273 273 273 273 273 274 274 274 274 274 274 274 274 275 275 275 275 275 275 276 276 276 276 276 276 276 276 276 276 276
277 277 277 277 277 276 276 276 275 274 273 273 272 272 272 273 273 273 273 274 274 274 274 274 274 275 275 275 275 275 275 275 276 276 276 276 276 276 276 276 277 277
278 277 277 277 277 276 276 275 275 274 273 273 272 272 272 272 272 273 273 273 273 273 274 274 274 275 275 274 274 275 275 274 275 276 276 276 276 276 276 277 277 278
278 277 277 277 277 276 276 275 274 274 273 273 272 272 271 271 272 272 273 273 273 273 274 274 274 274 274 274 274 275 275 274 274 275 275 276 276 277 277 278 278 278
278 277 277 277 276 276 275 275 274 274 273 273 272 272 271 271 272 272 272 273 273 273 273 274 274 274 274 274 274 274 275 274 274 275 275 275 276 276 277 278 278 278
278 277 277 277 276 276 275 275 275 274 273 273 272 272 271 271 271 271 272 272 272 273 273 274 274 274 274 274 274 274 275 274 274 275 275 275 276 277 277 278 278 279
279 277 277 276 276 276 275 275 275 274 274 273 272 272 272 271 271 272 272 272 272 272 273 273 274 274 273 273 274 274 275 274 274 275 275 276 276 277 278 278 279 279
279 278 277 276 275 275 275 275 274 274 273 273 272 272 272 271 271 271 272 272 272 272 273 273 274 274 273 273 274 274 275 275 275 276 276 276 277 277 278 278 279 279
279 278 276 276 275 275 275 275 274 273 273 272 272 272 272 272 271 271 271 272 272 272 272 273 273 273 273 273 274 274 274 275 275 276 276 276 276 277 277 278 278 279
279 277 276 275 275 275 275 274 274 273 273 272 272 272 272 272 271 271 272 272 272 272 272 272 273 274 273 274 274 275 275 275 275 276 275 276 276 276 277 277 278 278
278 277 276 275 275 275 274 274 273 273 273 273 273 272 272 272 272 272 272 272 272 272 272 272 273 274 274 274 274 275 275 275 275 275 275 275 276 276 276 277 277 278
Wind_Speed
29 27 27 26 26 26 26 25 24 24 23 23 22 22 21 20 19 19 19 19 19 19 19 19 20 20 20 20 21 21 22 23 23 22 22 22 22 22 22 22 23 22
29 28 28 28 27 27 27 27 26 26 25 24 23 23 22 22 21 21 21 21 20 20 20 20 20 20 20 20 21 21 22 22 22 22 22 22 22 22 22 22 23 23
29 29 29 29 29 28 28 28 28 29 27 26 25 24 24 23 23 23 22 22 22 22 21 20 20 20 20 20 21 21 22 23 23 22 22 22 22 22 22 22 22 22
29 30 30 30 30 29 29 29 30 30 30 29 27 26 26 25 25 25 24 24 24 23 23 22 21 21 21 21 21 22 22 23 23 22 22 22 22 22 22 22 22 22
30 30 31 31 31 30 30 31 31 31 31 31 30 29 28 27 27 27 26 26 26 25 25 24 24 23 23 22 22 22 23 23 23 23 23 22 21 21 21 21 22 22
30 31 31 31 31 31 31 32 32 32 32 32 31 31 30 30 30 29 29 29 28 27 27 26 26 26 25 24 24 24 24 23 23 23 23 22 21 21 20 20 21 21
31 31 32 32 32 32 32 32 32 32 32 32 32 32 32 32 32 31 31 31 30 30 29 29 29 28 27 27 26 26 25 24 23 23 23 23 21 20 20 20 20 20
31 31 32 32 32 33 33 33 33 33 32 32 32 32 32 32 33 33 32 33 32 32 31 31 30 30 29 29 28 28 27 25 24 23 24 23 22 20 19 19 20 20
32 32 32 33 33 33 34 33 33 32 32 32 32 32 32 32 33 33 33 33 33 33 32 32 32 32 31 30 29 29 28 26 24 24 24 23 22 20 19 19 20 20
33 33 32 33 33 33 34 34 33 32 32 32 32 33 33 32 33 33 34 34 34 34 33 32 32 32 32 31 30 29 28 26 25 24 24 23 22 20 19 19 20 20
34 33 33 32 32 32 34 34 33 32 32 32 33 33 33 33 33 33 34 34 34 34 33 33 32 32 31 31 30 29 28 26 25 25 24 22 21 21 20 19 19 19
33 34 33 32 31 31 32 33 33 33 33 33 33 33 33 33 33 33 34 34 34 34 34 33 33 32 32 30 29 29 27 25 24 23 22 22 22 22 20 19 19 20
33 33 33 31 30 30 30 32 33 33 33 33 33 33 33 33 33 32 32 33 33 33 33 33 33 33 32 31 30 28 26 24 23 22 21 22 22 21 20 19 20 20
32 32 32 31 30 29 30 31 32 32 32 32 32 33 33 33 32 32 32 32 32 33 33 33 33 33 32 31 30 27 25 23 22 22 22 22 22 22 21 21 22 21
31 31 31 31 30 29 29 30 31 32 32 32 32 32 33 32 32 32 32 32 31 31 32 32 32 33 32 30 29 26 24 23 23 23 23 23 23 22 22 22 22 21
32 32 31 31 30 29 29 29 30 31 31 31 32 32 32 32 32 32 32 31 31 31 31 31 31 31 30 28 26 24 23 23 23 23 23 23 22 22 22 21 19 18
32 32 31 31 30 29 28 28 29 29 30 30 31 31 31 31 32 31 31 30 30 31 31 30 30 29 28 26 24 23 23 23 23 23 22 22 22 22 21 18 16 16
33 32 31 31 30 29 27 27 27 28 29 29 29 30 31 31 31 31 30 30 30 30 30 30 29 27 26 24 22 22 22 23 23 22 21 21 21 20 19 17 16 17
33 33 32 30 29 28 27 26 26 28 28 28 28 29 30 31 31 30 29 29 29 30 30 29 27 25 24 23 22 21 21 21 22 22 21 20 20 18 16 15 17 18
34 33 31 30 29 28 27 26 26 27 27 27 27 28 29 30 30 29 29 29 29 29 29 28 26 24 23 22 21 21 21 21 22 22 21 21 19 17 17 18 19 21
34 33 31 30 29 28 28 27 26 26 26 26 26 27 28 29 29 29 28 28 28 28 28 27 25 22 22 21 21 21 20 20 22 21 21 21 20 18 18 19 19 19
34 33 32 30 29 29 28 27 26 26 25 25 25 26 27 28 28 28 27 27 26 26 27 26 23 20 21 21 21 20 21 21 22 21 22 21 18 16 16 16 14 14
33 32 31 30 29 29 29 27 26 25 24 24 25 26 27 27 27 26 26 26 25 25 25 25 21 19 20 21 20 21 21 22 22 22 21 18 15 15 15 14 12 13
32 32 31 30 30 30 28 27 25 24 23 24 25 26 26 26 25 25 25 25 24 23 23 23 20 18 19 21 21 22 21 21 22 20 17 15 15 17 20 20 18 16
31 31 31 30 30 30 28 26 25 24 23 24 24 25 25 24 24 24 24 23 23 21 21 21 19 17 19 21 22 23 23 22 20 16 15 16 17 18 21 23 23 22
31 31 31 31 30 29 27 25 25 24 24 24 24 24 24 23 23 23 23 21 20 20 20 20 19 17 18 21 22 23 24 21 16 14 17 19 19 19 20 22 24 23
Wind_Direction
289 286 281 276 272 270 268 268 267 266 266 265 265 267 267 267 267 266 267 267 268 270 271 273 274 276 277 279 279 280 281 282 284 285 284 284 285 285 285 286 284 281
289 286 281 276 272 269 267 267 267 265 265 264 264 264 265 266 266 266 266 266 266 267 267 269 270 272 274 276 278 279 279 280 281 283 283 283 283 284 284 283 283 281
288 286 281 277 273 270 267 266 266 265 264 263 263 262 263 263 264 265 265 265 265 264 264 265 266 268 270 273 276 277 278 280 280 280 280 281 281 283 283 281 279 279
287 287 283 277 273 270 267 264 263 264 264 263 262 262 262 262 262 263 263 263 263 262 262 262 263 265 268 270 273 275 277 278 279 279 277 278 280 281 281 280 278 276
286 286 284 278 273 269 266 264 262 262 263 262 262 261 261 261 261 261 261 261 261 261 261 261 262 264 266 269 271 273 275 276 277 278 276 275 277 279 280 278 276 275
283 285 285 280 273 269 266 264 262 261 261 262 262 261 261 261 261 260 260 260 260 259 259 260 261 263 265 268 270 271 272 274 276 277 276 274 275 278 279 278 276 274
281 283 284 281 275 269 266 264 263 261 261 261 261 261 261 261 261 261 260 260 260 259 259 260 260 262 265 266 268 270 270 271 273 275 275 274 274 276 278 279 279 277
279 281 283 281 276 270 266 264 263 262 261 261 261 262 262 262 262 262 261 260 260 260 260 261 261 263 265 267 268 269 269 270 271 274 273 271 270 273 276 277 277 278
277 278 280 281 278 272 267 264 262 262 262 261 262 262 262 262 263 263 263 262 262 261 261 261 263 264 266 268 269 269 269 270 271 273 273 271 270 272 274 275 275 277
275 276 278 279 279 274 269 265 262 260 260 261 262 262 262 263 263 264 264 264 263 263 263 263 263 265 266 268 269 269 269 269 270 271 270 269 269 271 273 273 274 276
274 275 276 278 279 276 271 266 262 260 260 260 261 262 262 262 263 263 264 264 264 264 265 264 264 265 266 267 268 269 268 268 269 269 268 267 268 269 269 271 272 275
273 273 275 278 279 277 273 268 264 261 259 260 261 262 262 262 262 263 263 263 264 265 265 265 265 265 265 266 266 267 267 267 268 267 266 267 267 267 268 271 274 274
273 273 275 278 279 277 273 268 264 262 260 259 260 261 262 262 262 262 263 263 263 264 264 265 265 265 265 265 265 266 265 266 266 264 264 266 266 266 270 273 274 272
273 273 274 277 278 277 273 269 265 263 261 260 260 261 261 262 263 263 263 263 263 264 264 264 264 264 264 263 263 264 264 263 262 261 263 263 263 266 270 272 273 273
272 271 273 275 276 276 274 270 267 264 263 262 262 262 262 262 263 263 264 264 264 264 264 265 265 264 264 263 263 263 261 259 258 258 259 258 259 263 267 269 272 272
270 269 271 273 274 275 274 272 269 266 264 264 263 263 263 262 263 264 265 265 265 264 264 265 265 264 264 263 262 261 258 255 254 255 255 256 257 262 267 270 272 269
267 267 269 271 273 273 273 271 270 268 266 265 264 264 264 264 264 265 265 266 265 265 265 265 265 265 264 262 259 256 254 254 254 253 251 251 254 260 264 266 267 267
266 266 267 269 271 272 271 271 270 269 268 267 266 266 266 266 266 266 265 265 266 266 266 266 266 265 263 259 253 248 248 253 255 253 249 247 251 255 256 258 265 274
265 265 266 268 270 271 270 269 268 269 269 269 268 269 268 267 267 266 266 265 266 267 267 266 266 264 261 257 250 243 242 244 247 248 249 252 254 255 260 269 279 285
264 264 265 267 268 269 269 268 268 269 270 270 270 269 269 268 268 267 266 266 266 267 267 266 265 263 258 253 246 241 238 236 236 240 246 253 256 261 272 282 288 290
264 263 265 266 266 267 267 268 269 269 270 271 271 271 270 270 269 268 268 267 266 267 266 265 263 259 254 249 241 237 233 228 228 233 240 247 254 264 274 282 289 291
265 264 264 264 264 265 266 267 269 270 271 273 273 273 272 271 271 270 269 268 266 265 265 264 261 255 249 244 237 233 227 222 223 228 234 242 253 264 272 280 285 283
266 264 263 263 263 264 266 268 269 270 271 272 272 273 272 272 272 271 269 267 265 263 263 264 260 251 245 240 234 228 222 218 221 226 231 245 260 262 262 264 261 260
266 263 262 262 262 263 266 268 269 270 270 271 271 272 272 272 272 271 268 266 264 263 262 261 257 246 239 237 230 222 217 217 220 225 236 256 264 255 250 251 250 253
265 262 261 260 261 263 266 267 268 268 269 270 271 272 273 272 271 269 267 264 263 262 259 257 254 242 233 233 227 218 214 214 217 230 248 256 254 247 245 248 250 250
263 260 259 259 260 263 266 265 266 266 267 269 271 272 273 271 268 267 266 264 262 260 255 253 250 240 231 227 223 217 212 209 219 247 254 249 246 244 244 249 252 250